Weather History for GMFO - July, 2013

Change the Weather History Date:

Friday, July 26, 2013

  Actual Average Record
Temperature  
Mean Temperature 84 °F -  
Max Temperature 98 °F 90 °F 102 °F (2003)
Min Temperature 71 °F 64 °F 60 °F (2002)
Cooling Degree Days 20    
Growing Degree Days 34 (Base 50)    
Moisture  
Dew Point 65 °F    
Average Humidity 59    
Maximum Humidity 83    
Minimum Humidity 28    
Precipitation  
Precipitation 0.00 in 0.01 in - ()
Sea Level Pressure  
Sea Level Pressure 29.92 in    
Wind  
Wind Speed 7 mph ()    
Max Wind Speed 22 mph    
Max Gust Speed -    
Visibility 6.2 miles    
Events Thunderstorm    
Averages and records for this station are not official NWS values.
T = Trace of Precipitation, MM = Missing Value Source: Averaged Metar Reports

Daily Weather History Graph

Daily Weather History Graph

Search for Another Location

Airport or City:

Trip Planner

Search our weather history database for the weather conditions in past years. The results will help you decide how hot, cold, wet, or windy it might be!

Date:

Astronomy

Jul. 26, 2013 Rise Set
Actual Time 5:13 AM WET 7:14 PM WET
Civil Twilight 4:45 AM WET 7:42 PM WET
Nautical Twilight 4:10 AM WET 8:17 PM WET
Astronomical Twilight 3:33 AM WET 8:53 PM WET
Moon 9:35 PM WET (7/26) 9:20 AM WET (7/26)
Length of Visible Light 14h 57m
Length of Day
14h 01m
Waning Gibbous, 82% of the Moon is Illuminated
Jul 26
Waning Gibbous
Jul 29
Last Quarter
Aug 6
New
Aug 14
First Quarter
Aug 21
Full

Hourly Weather History & Observations

Time (WET) Temp. Heat Index Dew Point Humidity Pressure Visibility Wind Dir Wind Speed Gust Speed Precip Events Conditions
12:00 AM 78.8 °F - 64.4 °F 61% 29.95 in 6.2 mi NW 5.8 mph - N/A   Scattered Clouds
2:00 AM 73.4 °F - 64.4 °F 73% 29.98 in 6.2 mi North 4.6 mph - N/A   Scattered Clouds
3:00 AM 73 °F - 64 °F 67% 29.90 in 6 mi NE 5.8 mph - -   Partly Cloudy
3:00 AM 73.4 °F - 64.4 °F 73% 29.98 in 6.2 mi NE 5.8 mph - N/A   Scattered Clouds
5:00 AM 71.6 °F - 66.2 °F 83% 29.98 in 5.0 mi Variable 2.3 mph - N/A   Scattered Clouds
7:00 AM 77.0 °F - 66.2 °F 69% 29.98 in 6.2 mi Variable 2.3 mph - N/A   Partly Cloudy
8:00 AM 80.6 °F 81.8 °F 62.6 °F 54% 29.98 in 6.2 mi North 3.5 mph - N/A   Partly Cloudy
9:00 AM 85 °F - 63 °F 37% 29.88 in 6 mi North 3.5 mph - -   Scattered Clouds
9:00 AM 86.0 °F 86.6 °F 62.6 °F 45% 29.98 in 6.2 mi North 3.5 mph - N/A   Partly Cloudy
10:00 AM 71.6 °F - 66.2 °F 83% 29.98 in 5.0 mi Calm Calm - N/A   Scattered Clouds
11:00 AM 96.8 °F 98.0 °F 62.6 °F 32% 29.95 in 6.2 mi ENE 8.1 mph - N/A   Partly Cloudy
12:00 PM 96 °F - 67 °F 28% 29.81 in 9 mi North 15.0 mph - -  
12:00 PM 96.8 °F 101.8 °F 68.0 °F 39% 29.95 in - North 15.0 mph - N/A   Clear
2:00 PM 89.6 °F 96.2 °F 71.6 °F 55% 29.89 in - North 21.9 mph - N/A   Clear
3:00 PM - - 69 °F % 29.78 in 6 mi North 21.9 mph - -   Scattered Clouds
4:00 PM 86.0 °F 89.4 °F 68.0 °F 55% 29.89 in 6.2 mi North 21.9 mph - N/A   Scattered Clouds
5:00 PM 84.2 °F 86.6 °F 66.2 °F 55% 29.89 in 6.2 mi North 19.6 mph - N/A   Scattered Clouds
6:00 PM 82 °F - 67 °F 51% 29.79 in 6 mi North 18.4 mph - -   Scattered Clouds
6:00 PM 82.4 °F 84.6 °F 66.2 °F 58% 29.89 in 6.2 mi North 18.4 mph - N/A   Scattered Clouds
8:00 PM 75.2 °F - 62.6 °F 65% 29.92 in 6.2 mi North 11.5 mph - N/A   Scattered Clouds
8:38 PM 75.2 °F - 64.4 °F 69% 29.92 in 6.2 mi South 4.6 mph - N/A Thunderstorm Thunderstorm
9:00 PM 75 °F - 64 °F 60% 29.83 in 6 mi ESE 4.6 mph - -   Scattered Clouds
9:00 PM 75.2 °F - 64.4 °F 69% 29.89 in 6.2 mi ESE 4.6 mph - N/A Thunderstorm Thunderstorm
10:00 PM 75.2 °F - 66.2 °F 73% 29.95 in 6.2 mi South 4.6 mph - N/A   Scattered Clouds
11:00 PM 75.2 °F - 66.2 °F 73% 29.95 in 6.2 mi North 2.3 mph - N/A   Partly Cloudy